Flag Weather past 2 weeks in Jaipur, Rajasthan, India

Now
73 °F

Haze.


Feels Like: 77 °F
Forecast: 58 / 80 °F
Wind: 1 mph from North

Location: Jaipur / Sanganer

Current Time: Nov 22, 2014 at 8:19:50 PM

Latest Report: Nov 22, 2014 at 7:00 PM


Visibility: 2 mi

Pressure: 29.95 "Hg

Humidity: 33%

Dew point: 43 °F

Location of JaipurLocation

Historic Weather in Jaipur — Graph

°F

Jaipur temperature yesterday

Maximum temperature yesterday: 84 °F (at 3:00 PM)
Minimum temperature yesterday: 57 °F (at 6:00 AM)
Average temperature yesterday: 71 °F

Past Weeks' High & Low Weather Summary

 TemperatureHumidityPressure
High90 °F (Nov 8, 1:00 PM)73% (Nov 8, 6:30 AM)30.15 "Hg (Nov 8, 6:30 AM)
Low54 °F (Nov 16, 5:30 AM)8% (Nov 15, 4:00 PM)29.89 "Hg (Nov 22, 3:00 PM)
Average73 °F37%30.03 "Hg
* Reported Nov 7 7:00 PM — Nov 22 7:00 PM, Jaipur, Weather by CustomWeather, © 2014

Note: Actual official high and low records may vary slightly from our data, if they occured in-between our weather recording intervals... More about our weather records

Advertising

Jaipur weather history for previous 24 hours

 ConditionsComfort  
Time TempWeatherWind HumidityBarometerVisibility
7:00 PM
Nov 22
73 °FHaze.1 mph33%29.95 "Hg1 mi
6:00 PM75 °FHaze.No wind27%29.92 "Hg1 mi
5:00 PM82 °FScattered clouds.2 mph19%29.89 "Hg2 mi
4:00 PM84 °FScattered clouds.3 mph16%29.89 "Hg2 mi
3:00 PM84 °FScattered clouds.7 mph16%29.89 "Hg2 mi
2:00 PM84 °FHaze.7 mph18%29.92 "Hg2 mi
1:00 PM82 °FHaze.7 mph25%29.95 "Hg2 mi
12:30 PM81 °FHaze.6 mph26%29.98 "Hg2 mi
11:00 AM77 °FHaze.5 mph28%30.01 "Hg1 mi
10:30 AM73 °FHaze.6 mph31%30.04 "Hg1 mi
10:00 AM73 °FHaze.6 mph31%30.04 "Hg1 mi
9:00 AM72 °FHaze.5 mph31%30.01 "Hg1 mi
8:00 AM66 °FMild.N/A37%29.98 "HgN/A
7:00 AM57 °FHaze.No wind55%29.98 "Hg1 mi
6:00 AM59 °FHaze.No wind48%29.95 "Hg1 mi
5:00 AM59 °FHaze.No wind51%29.95 "Hg1 mi
4:00 AM61 °FHaze.No wind45%29.95 "Hg1 mi
3:00 AM63 °FHaze.No wind42%29.95 "Hg1 mi
2:00 AM63 °FHaze.No wind45%29.95 "Hg1 mi
1:00 AM63 °FHaze.No wind42%29.98 "Hg1 mi
12:00 AM64 °FHaze.No wind40%29.98 "Hg1 mi
11:00 PM
Nov 21
66 °FHaze.No wind35%29.98 "Hg1 mi
10:00 PM68 °FHaze.7 mph30%29.98 "Hg1 mi
9:00 PM72 °FHaze.3 mph29%29.98 "Hg1 mi
8:00 PM73 °FHaze.3 mph27%29.98 "Hg1 mi
Weather by CustomWeather, © 2014

See weather overviewHow to use our weather pages